#timestamp,LO_Frequency,Hit,StdDev 
1562238015.6,286046999.7,N
1562238035.4,286047000.2,N
1562238055.3,286047000.0,N
1562238075.1,286047002.8,Y
1562238095.9,286046999.7,P
1562238115.7,286047000.2,N
1562238135.5,286047000.0,N
1562238155.4,286047000.2,N
1562238175.2,286046999.9,N
1562238195.0,286046999.9,N
1562238196.0,286046999.9,N
1562238215.8,286046999.7,N
1562238235.6,286047000.3,N
1562238255.5,286047000.0,N
1562238275.3,286046999.8,N
1562238295.1,286047000.1,N
1562238315.9,286047000.6,N
1562238335.7,286047000.4,N
1562238355.6,286047000.2,N
1562238375.4,286047000.9,Y
1562238395.3,286047001.2,P
1562238415.1,286047001.2,N
1562238416.0,286047001.2,N
1562238435.8,286047001.2,N
1562238455.7,286047001.2,N
1562238475.5,286047001.1,N
1562238495.3,286047000.0,N
1562238515.2,286047000.3,N
1562238535.0,286047002.8,Y
1562238535.9,286047002.8,P
1562238555.3,286046999.9,N
1562238575.1,286047000.3,N
1562238595.9,286047000.2,N
1562238615.7,286046999.8,N
1562238635.6,286046999.7,N
1562238655.4,286047002.7,N
1562238675.2,286047002.1,N
1562238695.1,286046999.9,N
1562238696.0,286046999.9,N
1562238715.8,286047000.6,N
1562238735.6,286047001.1,N
1562238755.5,286047001.0,N
1562238775.3,286047001.1,N
1562238795.2,286047000.8,N
1562238815.9,286047000.0,N
1562238835.7,286046999.8,N
1562238855.6,286047001.0,N
1562238875.4,286046998.9,N
1562238895.3,286046998.8,N
1562238915.1,286046998.6,N
1562238916.0,286046998.6,N
1562238935.8,286046999.0,N
1562238955.7,286046996.9,N
1562238975.5,286046996.6,N
1562238995.3,286046997.1,N
1562239015.2,286046996.9,N
1562239035.0,286046996.8,N
1562239035.9,286046996.8,N
1562239055.8,286046996.5,N
1562239075.6,286046999.5,N
1562239095.4,286046999.4,N
1562239115.3,286046999.6,N
1562239135.1,286046999.4,N
1562239155.9,286046999.6,N
1562239175.7,286046997.1,N
1562239195.5,286046997.8,N
1562239215.4,286046995.3,N
1562239235.2,286046998.0,N
1562239255.0,286046997.3,N
1562239255.9,286046997.3,N
1562239275.8,286046995.3,N
1562239295.6,286046997.2,N
1562239315.5,286046997.7,N
1562239335.3,286046997.7,N
1562239355.1,286046995.0,Y
1562239375.9,286046999.6,P
1562239395.7,286046999.4,N
1562239415.6,286046999.3,N
1562239435.4,286046998.7,N
1562239455.2,286046998.9,N
1562239475.1,286046999.6,N
1562239476.0,286046999.6,N
1562239495.8,286046998.3,Y
1562239515.6,286047000.8,P
1562239535.5,286047000.8,N
1562239555.3,286046998.1,N
1562239575.2,286047001.2,N
1562239595.9,286047000.5,N
1562239615.0,286047000.4,N
1562239615.9,286047000.4,N
1562239635.7,286047000.0,N
1562239655.5,286047000.5,N
1562239675.4,286047001.1,N
1562239695.2,286047000.5,N
1562239715.0,286046999.2,N
1562239715.9,286046999.2,N
1562239735.8,286046998.8,N
1562239755.6,286046998.1,N
1562239775.5,286047001.0,N
1562239795.3,286046998.2,N
1562239815.1,286046998.8,N
1562239835.9,286046996.8,Y
1562239855.7,286046996.7,P
1562239875.6,286046999.2,N
1562239895.4,286046999.5,N
1562239915.2,286046999.0,N
1562239935.1,286046999.2,N
1562239936.0,286046999.2,N
1562239955.8,286046998.4,N
1562239975.7,286047000.9,N
1562239995.5,286047000.6,N
1562240015.3,286047002.5,N
1562240035.2,286047000.1,N
1562240055.0,286047002.4,N
1562240055.9,286047002.4,N
1562240075.7,286047000.1,N
1562240095.6,286046999.0,N
1562240115.4,286046997.0,N
1562240135.3,286046996.8,N
1562240155.1,286046996.6,N
1562240175.8,286046999.0,N
1562240195.7,286046999.0,N
1562240215.5,286046996.9,N
1562240235.4,286046996.6,N
1562240255.2,286046996.5,N
1562240275.0,286046999.0,N
1562240275.9,286046999.0,N
1562240295.8,286046996.7,N
1562240315.6,286046998.8,N
1562240335.5,286046999.4,N
1562240355.3,286046999.6,N
1562240375.1,286046996.5,N
1562240395.9,286046997.1,N
1562240415.7,286046996.9,N
1562240435.5,286046997.6,N
1562240455.4,286046996.8,N
1562240475.2,286046999.6,N
1562240495.1,286046996.5,N
1562240496.0,286046996.5,N
1562240515.8,286047000.8,N
1562240535.6,286047000.6,N
1562240555.5,286047000.4,N
1562240575.3,286047000.6,N
1562240595.2,286046998.1,N
1562240615.9,286047001.2,N
1562240635.7,286047000.5,N
1562240655.6,286046999.1,N
1562240675.4,286046999.6,N
1562240695.2,286046998.3,N
1562240715.1,286047001.2,N
1562240716.0,286047001.2,N
1562240735.8,286047001.0,N
1562240755.7,286047000.2,N
1562240775.5,286047000.1,N
1562240795.4,286047000.2,N
1562240815.2,286046999.8,N
1562240835.3,286046999.7,N
1562240855.1,286046999.7,N
1562240875.9,286047002.2,N
1562240895.7,286047002.0,N
1562240915.6,286047002.1,N
1562240935.4,286047002.0,N
1562240955.2,286047002.2,N
1562240975.1,286047002.8,N
1562240976.0,286047002.8,N
1562240995.8,286047002.4,N
1562241015.7,286046999.9,N
1562241035.5,286047000.2,N
1562241055.3,286047000.0,N
1562241075.2,286047002.8,N
1562241095.0,286047002.8,N
1562241095.9,286047002.8,N
1562241115.8,286047001.0,N
1562241135.6,286046998.6,N
1562241155.4,286046999.9,N
1562241175.3,286047002.3,N
1562241195.1,286047001.9,N
1562241215.9,286047002.4,N
1562241235.7,286047002.8,N
1562241255.5,286047002.8,N
1562241275.4,286047002.6,N
1562241295.2,286047002.5,N
1562241315.0,286047002.6,N
1562241316.0,286047002.6,N
1562241335.8,286046999.7,N
1562241355.6,286047002.1,N
1562241375.5,286047002.3,N
1562241395.3,286047002.7,N
1562241415.1,286047001.6,N
1562241435.9,286047002.5,N
1562241455.7,286047002.1,N
1562241475.6,286047001.5,N
1562241495.4,286047001.6,N
1562241515.2,286047002.2,N
1562241535.1,286047001.5,N
1562241536.0,286047001.5,N
1562241555.8,286047002.6,N
1562241575.6,286047002.4,N
1562241595.5,286047002.2,N
